Weather Roundup
Issued by NWS Corpus Christi, TX

Home | Current Version | Previous Version | Text Only | Print | Product List | Glossary On
Versions: 1 2 3 4 5 6 7 8 9 10 11 12 13 14 15 16 17 18 19 20 21 22 23 24 25 26 27 28 29 30 31 32 33 34 35 36 37 38 39 40 41 42 43 44 45 46 47 48 49 50
000
ASUS44 KCRP 210810
HRRCRP

SOUTH TEXAS REGIONAL WEATHER ROUNDUP
NATIONAL WEATHER SERVICE CORPUS CHRISTI TX
300 AM CDT MON APR 21 2014


TXZ229>244-210900-
...CORPUS CHRISTI AREA OBSERVATIONS...

CITY           SKY/WX    TMP DP  RH WIND       PRES   REMARKS
CORPUS CHRISTI MOCLDY    71  65  81 SE8       30.02F
NAS CORPUS CHR MOCLDY    70  67  90 SE13      30.02F
ROCKPORT       MOCLDY    69  66  90 SE13      30.03F
KINGSVILLE NAS CLEAR     70  66  87 SE7       30.02F
ALICE          MOCLDY    67  64  90 CALM      30.03S
FALFURRIAS     CLOUDY    69  65  88 CALM      30.02S
$$

...VICTORIA AREA OBSERVATIONS...

CITY           SKY/WX    TMP DP  RH WIND       PRES   REMARKS
VICTORIA       CLOUDY    65  64  97 E5        30.06F
BEEVILLE       CLOUDY    69  67  94 CALM      30.04F
PLEASANTON     CLOUDY    68  62  80 CALM      30.06F
SAN ANTONIO    CLOUDY    69  62  78 S10       30.06F
$$

...LAREDO AREA OBSERVATIONS...

CITY           SKY/WX    TMP DP  RH WIND       PRES   REMARKS
LAREDO         CLOUDY    73  65  76 SE7       30.04F
COTULLA        CLOUDY    71  64  78 SE8       30.03F
DEL RIO        CLOUDY    70  64  81 E10       30.01F
MCALLEN        MOCLDY    68  65  90 SE7       30.01S
HEBBRONVILLE   CLOUDY    69  64  83 SE6       30.05R
$$

...OTHER TEXAS OBSERVATIONS...

CITY           SKY/WX    TMP DP  RH WIND       PRES   REMARKS
BROWNSVILLE    CLOUDY    69  67  93 SE12      30.01F
HOUSTON        MOCLDY    66  63  90 S3        30.08F
COL. STATION   MOCLDY    64  61  90 S10       30.06F
AUSTIN         MOCLDY    65  61  87 S9        30.04F
WACO           CLOUDY    66  57  72 S9        30.04F
FORT WORTH     MOCLDY    63  60  90 SE10      30.01F
WICHITA FALLS  LGT RAIN  61  60  97 SE10      29.96R
LUBBOCK        CLEAR     54  50  86 S6        30.00S
EL PASO        CLEAR     62  43  49 E6        30.09S
$$

...MARINE OBSERVATIONS...

STATION/POSITION TIME  SKY/WX   TEMP    WIND        PRES    VSBY  WAVE   SWELL
                                AIR SEA DIR/SP/G                  HT/PER HT/PER
                 (UTC)          (F)     (DEG/KT/KT) (MB)    (MI)  (FT/S) (FT/S)
PORT ARANSAS     0800            69 70  120/ 11/ 13 1016.9F
BUOY 90 E PORT A NOT AVBL
BUOY 45 SE BAFFI 0800            69 69  130/ 10/ 12 1016.5F         2/ 5   2/ 5
BUOY 200 E PT IS NOT AVBL
BUOY 15 E GALVES 0800            68 68  160/  6/  8 1018.5F         1/ 2
$$


USA.gov is the U.S. government's official web portal to all federal, state and local government web resources and services.